Regional Weather Roundup
Issued by NWS

Home | Current Version | Previous Version | Graphics & Text | Print | Product List | Glossary On
Versions: 1 2 3 4 5 6 7 8 9 10 11 12 13 14 15 16 17 18 19 20 21 22 23 24 25 26 27 28 29 30 31 32 33 34 35 36 37 38 39 40 41 42 43 44 45 46 47 48 49 50
000
ASUS43 KMKX 300425
RWRWI

WISCONSIN REGIONAL WEATHER ROUNDUP
NATIONAL WEATHER SERVICE MILWAUKEE/SULLIVAN WI
1100 PM CDT FRI MAY 29 2015

NOTE: "FAIR" INDICATES FEW OR NO CLOUDS BELOW 12,000 FEET WITH NO
SIGNIFICANT WEATHER AND/OR OBSTRUCTIONS TO VISIBILITY.

WIZ001-002-006>008-014>016-023>028-300500-
NORTHWEST WISCONSIN

CITY           SKY/WX    TMP DP  RH WIND       PRES   REMARKS
SUPERIOR ARPT  CLOUDY    51  43  73 N5        30.09R
ASHLAND        CLOUDY    53  47  79 N13       30.04R
HAYWARD        CLOUDY    51  48  89 N14G22    30.05R
SIREN          CLOUDY    52  48  86 N9        30.07R
CUMBERLAND     CLOUDY    52  50  93 N15       30.03R
RICE LAKE      DRIZZLE   55  51  87 N12G17    30.03R
CHETEK         RAIN      56  55  96 NW6G18    30.01R
LADYSMITH      DRIZZLE   57  55  93 N6        30.01R
EAU CLAIRE     LGT RAIN  60  57  89 N9        29.96R
MENOMONIE      DRIZZLE   59  59  99 N13       29.98R
NEW RICHMOND   LGT RAIN  54  52  95 N13G21    30.03R
OSCEOLA        LGT RAIN  53  53 100 N12G17    30.07R
$$

WIZ003>005-009-010-017-018-300500-
NORTH CENTRAL WISCONSIN

CITY           SKY/WX    TMP DP  RH WIND       PRES   REMARKS
MANITOWISH WTR LGT RAIN  54  54 100 N7        30.00R
ARBOR VITAE    RAIN      57  55  94 N7        29.99R
WOODRUFF       RAIN      57  55  94 N7        29.99R
RHINELANDER    LGT RAIN  57  54  89 N5        29.97R
EAGLE RIVER    RAIN      55  55 100 N9        29.97R
LAND O LAKES   RAIN      55  54  96 N6        29.99R
PHILLIPS       RAIN      55  54  96 N12       29.99S
TOMAHAWK       RAIN      57  56  94 N5        29.97R
MEDFORD        LGT RAIN  58  56  95 N10G18    29.95S
MERRILL        RAIN      60  60 100 N5        29.96R
$$

WIZ029-030-035-036-043>047-300500-
CENTRAL WISCONSIN

CITY           SKY/WX    TMP DP  RH WIND       PRES   REMARKS
WAUSAU         LGT RAIN  62  60  93 N5        29.91F
MOSINEE        LGT RAIN  61  61 100 N7        29.93F
MARSHFIELD     LGT RAIN  63  59  87 NE8       29.92S
STEVENS POINT  LGT RAIN  62  61  97 N6        29.91F
WAUPACA        LGT RAIN  67  67  98 CALM      29.91F
WAUTOMA        LGT RAIN  66  66 100 CALM      29.91F
WISC RAPIDS    CLOUDY    66  63  90 NE3       29.91F
CAMP DOUGLAS   FOG       63  63 100 CALM      29.91S VSB 3/4
$$

WIZ011>013-019>022-031-037>040-048>050-300500-
NORTHEAST WISCONSIN

CITY           SKY/WX    TMP DP  RH WIND       PRES   REMARKS
ANTIGO         LGT RAIN  59  59  99 N6        29.94S
SHAWANO        DRIZZLE   66  64  96 NW3       29.91R
OCONTO         CLOUDY    63  63 100 CALM      29.88F
STURGEON BAY   CLOUDY    64  61  88 NW3       29.90S
GREEN BAY      LGT RAIN  66  63  90 NW5       29.89F
MANITOWOC      CLOUDY    61  60  97 CALM      29.89S
APPLETON       RAIN      64  64 100 VRB3      29.93R
CLINTONVILLE   RAIN      64  63  94 CALM      29.91R
OSHKOSH        LGT RAIN  65  63  93 W5        29.92R
$$

WIZ032>034-041-042-053>061-300500-
SOUTHWEST WISCONSIN

CITY           SKY/WX    TMP DP  RH WIND       PRES   REMARKS
LA CROSSE      CLOUDY    67  64  90 CALM      29.90S
SPARTA         CLOUDY    64  62  95 CALM      29.91F
VIROQUA        CLOUDY    64  64 100 CALM      29.92F
BOSCOBEL       CLOUDY    68  65  90 CALM      29.90F
PRAIRIE DU CHI CLOUDY    67  65  90 CALM      29.89F
PLATTEVILLE    CLOUDY    69  67  93 SW7       29.93S
$$

WIZ056-057-062-063-064-067-068-300500-
SOUTH CENTRAL WISCONSIN

CITY           SKY/WX    TMP DP  RH WIND       PRES   REMARKS
REEDSBURG      CLOUDY    64  64  98 CALM      29.92S
BARABOO/DELLS  CLOUDY    64  63  94 CALM      29.92S
LONE ROCK      LGT RAIN  67  64  90 CALM      29.91S
MINERAL POINT  LGT RAIN  70  66  88 SW5       29.92F
MADISON        LGT RAIN  68  64  87 SW3       29.90S
MIDDLETON      CLOUDY    70  68  93 SW6       29.91S
WATERTOWN      CLOUDY   N/A N/A N/A SW6       29.90S
MONROE         CLOUDY    70  66  88 SW9       29.93S
JANESVILLE     CLOUDY    70  68  94 SW5       29.92R
$$

WIZ051-052-058>065-066-070>072-300500-
SOUTHEAST WISCONSIN

CITY           SKY/WX    TMP DP  RH WIND       PRES   REMARKS
MILWAUKEE      MOCLDY    71  65  81 SW9       29.90S
WAUKESHA       CLOUDY    68  64  88 SW6       29.92S
MILWAUKEE/TIMM CLOUDY    70  64  83 SW5       29.91S
RACINE         CLOUDY    70  65  84 SW6       29.92S
BURLINGTON     CLOUDY    67  64  90 SW5       29.92S
KENOSHA        CLOUDY    70  65  84 SW6       29.92R
FOND DU LAC    RAIN      65  63  93 N12       29.91S FOG
SHEBOYGAN      CLOUDY    67  66  97 NW6       29.89R
WEST BEND      CLOUDY    68  64  88 SW3       29.89F
JUNEAU         LGT RAIN  67  64  88 NW8       29.93R
$$

LSZ147-162-300500-
LAKE SUPERIOR

STATION/POSITION TIME  TEMP    WIND        PRES    WAVE
                       AIR SEA DIR/SP/G            HT/PER
                 (UTC) (F)     (DEG/KT/KT) (MB)    (FT/S)
W MID LAKE BUOY  0350   43 37  350/  6/  8   N/A     0
DEVILS ISLAND    0400   48     330/ 15/ 16   N/A
PORT WING        0200   47     350/ 11/ 14   N/A
SAXON HARBOR     0200   53        CALM       N/A
$$

LMZ867-665-643>646-300500-
LAKE MICHIGAN

STATION/POSITION TIME  TEMP    WIND        PRES    WAVE
                       AIR SEA DIR/SP/G            HT/PER
                 (UTC) (F)     (DEG/KT/KT) (MB)    (FT/S)
CHAMBERS ISLAND  0300   58      20/  6/  8   N/A
N MID LAKE BUOY  0350   47 37  200/  2/  4   N/A     1/ 4
NORTHPORT PIER   0300   60     310/  4/  7   N/A
SISTER BAY       0303   63      40/  4/  8   N/A
ALGOMA LAKESHORE 0308          330/  3/  5   N/A
KEWAUNEE LAKESHO 0300   61     330/  6/  8   N/A
SHEBOYGAN LAKESH 0400   61     350/  4/  6   N/A
PORT WASHINGTON  0340   59      CALM  /  1   N/A
ATWATER BUOY     0300   56     180/  8/ 10   N/A
MILWAUKEE LAKESH 0300   56        CALM       N/A
S MID LAKE BUOY  0350   48 38  210/  8/ 10   N/A     0
KENOSHA   LAKESH 0400   73     230/  6/  9   N/A
$$

TC  - TEMPERATURE IN CELSIUS
VSB - VISIBILITY IN STATUTE MILES
WCI - WIND CHILL INDEX
HX  - HEAT INDEX




USA.gov is the U.S. government's official web portal to all federal, state and local government web resources and services.